Miscellaneous Local Product
Issued by NWS Hastings, NE

Home | Current Version | Previous Version | Graphics & Text | Print | Product List | Glossary On
Versions: 1 2 3 4 5 6 7 8 9 10 11 12 13 14 15 16 17 18 19 20 21 22 23 24 25 26 27 28 29 30 31 32 33 34 35 36 37 38 39 40 41 42 43 44 45 46 47 48 49 50
000
AXUS43 KGID 030302
MISGRI

GID CWA HOURLY WEATHER ROUNDUP
NATIONAL WEATHER SERVICE HASTINGS NE
1000 PM CDT WED SEP 02 2015

NOTE: "FAIR" INDICATES FEW OR NO CLOUDS BELOW 12,000 FEET WITH NO
SIGNIFICANT WEATHER AND/OR OBSTRUCTIONS TO VISIBILITY.

...SOUTH CENTRAL NEBRASKA...

CITY           SKY/WX    TMP DP  RH WIND       PRES   REMARKS
GRAND ISLAND   CLEAR     78  67  68 SE6       29.86R
HASTINGS       CLEAR     82  64  54 S10       29.85R
KEARNEY        CLEAR     75  63  64 SE7       29.85R
ORD            CLEAR     73  66  78 CALM      29.84R
YORK           CLEAR     77  68  73 S6        29.86R
AURORA         CLEAR     75  69  82 SE6       29.86R
LEXINGTON      CLEAR     75  67  77 SE5       29.85S
HOLDREGE       CLEAR     76  64  68 E9        29.85R
HEBRON         CLEAR     81  63  54 S9        29.85R

...NEBRASKA PANHANDLE...

CITY           SKY/WX    TMP DP  RH WIND       PRES   REMARKS
CHADRON        CLEAR     77  44  30 S8        29.82R
ALLIANCE       CLEAR     71  46  40 SE8       29.90R
SCOTTSBLUFF    PTCLDY    71  55  56 E3        29.90R
SIDNEY         CLEAR     65  41  41 SW7       29.96R

...WESTERN AND NORTH CENTRAL NEBRASKA...

CITY           SKY/WX    TMP DP  RH WIND       PRES   REMARKS
VALENTINE      PTCLDY    83  57  41 S12       29.82R
AINSWORTH      CLEAR     79  58  47 S9        29.85R
ONEILL         CLEAR     79  70  74 SE8       29.84R
BROKEN BOW     CLEAR     69  65  86 CALM      29.87R
IMPERIAL       PTCLDY    75  56  51 E3        29.88R
NORTH PLATTE   CLEAR     70  66  87 E8        29.87R
MCCOOK         CLEAR     79  60  52 E7        29.84R

...EASTERN NEBRASKA...

CITY           SKY/WX    TMP DP  RH WIND       PRES   REMARKS
NORFOLK        CLEAR     75  72  90 SE8       29.84R
SO SIOUX CITY  CLEAR     75  71  87 SE8       29.84R
TEKAMAH        CLEAR     76  73  91 S3        29.85R
COLUMBUS       CLEAR     79  66  65 SE5       29.85S
ALBION         CLEAR     74  68  82 SE5       29.86R
OMAHA EPPLEY   PTCLDY    82  71  69 S13       29.87R
OFFUTT AFB     FAIR      78  70  77 SE10      29.87R
MILLARD        PTCLDY    80  72  77 SE3       29.87R
LINCOLN        CLEAR     81  68  64 S9        29.86R
NEBRASKA CITY  PTCLDY    78  64  61 S10       29.89R
BEATRICE       CLEAR     82  67  61 S12G17    29.86R
FALLS CITY     CLEAR     77  70  79 SE9       29.90R

...NORTHERN KANSAS...

CITY           SKY/WX    TMP DP  RH WIND       PRES   REMARKS
GOODLAND       PTCLDY    72  53  51 W6        29.89R
HILL CITY      CLEAR     88  56  33 S10       29.83R
NORTON         CLEAR     73  57  56 E3        29.82S
PHILLIPSBURG   CLEAR     88  55  33 CALM      29.82R
SMITH CENTER   CLEAR     82  59  44 SE14      29.84R
HAYS           CLEAR     88  55  33 S17G23    29.85R
RUSSELL        CLEAR     86  59  39 S17       29.84R
CONCORDIA      CLEAR     82  65  56 S17       29.86R
SALINA         CLEAR     83  65  54 S15       29.87R
TOPEKA         CLEAR     79  69  71 SE9       29.93R



USA.gov is the U.S. government's official web portal to all federal, state and local government web resources and services.